Terminal Aerodrome Forecast
Issued by NWS

Home | Current Version | Previous Version | Text Only | Print | Product List | Glossary On
Versions: 1 2 3 4 5 6 7 8 9 10 11 12 13 14 15 16 17 18 19 20 21
000
FTUS45 KCYS 231700
TAFLAR
TAF
KLAR 231724Z 2318/2418 25015G25KT P6SM SCT060
     FM240100 25008KT P6SM SKC
     FM240900 20005KT P6SM SKC=

USA.gov is the U.S. government's official web portal to all federal, state and local government web resources and services.